When you browse on this site, cookies collect data to enhance your experience and personalize the content and advertising you see.
Visit our Privacy Policy to learn more. By continuing to use the site, you agree to this use of cookies and data.
  • In Romania
  • List of Countries
  • For 7 days
  • Water Temperature
  • Weather Map
  • Weather Widgets
  • user-avatar
    Login

    Hourly Weather Búðardalur

    Today, 25 August, Sunday

    Time Temperature Precipitation Wind Pressure Humidity
    00:00 +8°C° 0 mm 0 mps 757 mmHg 93%
    01:00 +9°C° 0 mm 1 mps 757 mmHg 94%
    02:00 +9°C° 0 mm 1 mps 757 mmHg 95%
    03:00 +9°C° 0 mm 1 mps 756 mmHg 94%
    04:00 +9°C° 0 mm 1 mps 755 mmHg 94%
    05:00 +9°C° 0 mm 1 mps 755 mmHg 94%
    06:00 +10°C° 0 mm 1 mps 754 mmHg 91%
    07:00 +10°C° 0 mm 2 mps 754 mmHg 87%
    08:00 +12°C° 0 mm 2 mps 753 mmHg 84%
    09:00 +11°C° 0 mm 3 mps 753 mmHg 79%
    10:00 +12°C° 0 mm 3 mps 752 mmHg 74%
    11:00 +13°C° 0 mm 4 mps 751 mmHg 69%
    12:00 +11°C° 0.4 mm 6 mps 750 mmHg 72%
    13:00 +10°C° 0.4 mm 7 mps 749 mmHg 76%
    14:00 +10°C° 0.4 mm 8 mps 748 mmHg 79%
    15:00 +10°C° 0.6 mm 9 mps 746 mmHg 79%
    16:00 +10°C° 0.6 mm 9 mps 745 mmHg 80%
    17:00 +10°C° 0.6 mm 9 mps 743 mmHg 80%
    18:00 +10°C° 1.1 mm 9 mps 742 mmHg 82%
    19:00 +10°C° 1.1 mm 9 mps 741 mmHg 84%
    20:00 +8°C° 1.1 mm 9 mps 740 mmHg 87%
    21:00 +9°C° 1.4 mm 7 mps 740 mmHg 89%
    22:00 +9°C° 1.4 mm 6 mps 739 mmHg 91%
    23:00 +9°C° 1.4 mm 5 mps 738 mmHg 92%

    Tomorrow, 26 August, Monday

    Time Temperature Precipitation Wind Pressure Humidity
    00:00 +9°C° 0.4 mm 5 mps 737 mmHg 92%
    01:00 +8°C° 0.4 mm 4 mps 737 mmHg 91%
    02:00 +9°C° 0.4 mm 3 mps 736 mmHg 90%
    03:00 +9°C° 0.2 mm 3 mps 736 mmHg 90%
    04:00 +8°C° 0.2 mm 4 mps 735 mmHg 89%
    05:00 +8°C° 0.2 mm 4 mps 734 mmHg 89%
    06:00 +8°C° 0.5 mm 4 mps 734 mmHg 89%
    07:00 +8°C° 0.5 mm 4 mps 734 mmHg 90%
    08:00 +8°C° 0.5 mm 4 mps 733 mmHg 90%
    09:00 +9°C° 0.4 mm 5 mps 733 mmHg 87%
    10:00 +10°C° 0.4 mm 6 mps 734 mmHg 85%
    11:00 +11°C° 0.4 mm 6 mps 734 mmHg 82%
    12:00 +11°C° 0.4 mm 7 mps 734 mmHg 82%
    13:00 +11°C° 0.4 mm 7 mps 734 mmHg 81%
    14:00 +11°C° 0.4 mm 8 mps 735 mmHg 80%
    15:00 +11°C° 0 mm 7 mps 735 mmHg 80%
    16:00 +11°C° 0 mm 7 mps 735 mmHg 80%
    17:00 +11°C° 0 mm 7 mps 735 mmHg 80%
    18:00 +10°C° 0 mm 6 mps 736 mmHg 83%
    19:00 +10°C° 0 mm 5 mps 737 mmHg 86%
    20:00 +9°C° 0 mm 5 mps 737 mmHg 89%
    21:00 +10°C° 0 mm 4 mps 738 mmHg 91%
    22:00 +8°C° 0 mm 4 mps 738 mmHg 93%
    23:00 +8°C° 0 mm 4 mps 739 mmHg 94%

    Day after tomorrow, 27 August, Tuesday

    Time Temperature Precipitation Wind Pressure Humidity
    00:00 +8°C° 0 mm 4 mps 739 mmHg 95%
    01:00 +9°C° 0 mm 3 mps 739 mmHg 95%
    02:00 +9°C° 0 mm 2 mps 740 mmHg 95%
    03:00 +9°C° 0.1 mm 2 mps 740 mmHg 95%
    04:00 +9°C° 0.1 mm 2 mps 740 mmHg 95%
    05:00 +10°C° 0.1 mm 1 mps 740 mmHg 95%
    06:00 +9°C° 0.8 mm 2 mps 741 mmHg 95%
    07:00 +9°C° 0.8 mm 2 mps 741 mmHg 95%
    08:00 +9°C° 0.8 mm 2 mps 742 mmHg 95%
    09:00 +10°C° 0.7 mm 3 mps 742 mmHg 90%
    10:00 +10°C° 0.7 mm 4 mps 743 mmHg 85%
    11:00 +9°C° 0.7 mm 5 mps 743 mmHg 79%
    12:00 +9°C° 0.2 mm 5 mps 744 mmHg 81%
    13:00 +9°C° 0.2 mm 6 mps 744 mmHg 82%
    14:00 +8°C° 0.2 mm 6 mps 745 mmHg 84%
    15:00 +8°C° 0.1 mm 6 mps 745 mmHg 84%
    16:00 +8°C° 0.1 mm 5 mps 745 mmHg 84%
    17:00 +8°C° 0.1 mm 5 mps 746 mmHg 84%
    18:00 +8°C° 0.1 mm 4 mps 746 mmHg 86%
    19:00 +8°C° 0.1 mm 3 mps 747 mmHg 88%
    20:00 +8°C° 0.1 mm 2 mps 747 mmHg 90%
    21:00 +8°C° 0.1 mm 2 mps 748 mmHg 90%
    22:00 +9°C° 0.1 mm 1 mps 748 mmHg 90%
    23:00 +9°C° 0.1 mm 1 mps 748 mmHg 91%

    28 August, Wednesday

    Time Temperature Precipitation Wind Pressure Humidity
    00:00 +9°C° 0.1 mm 1 mps 749 mmHg 91%
    01:00 +9°C° 0.1 mm 1 mps 749 mmHg 91%
    02:00 +9°C° 0.1 mm 1 mps 749 mmHg 91%
    03:00 +7°C° 0.3 mm 2 mps 750 mmHg 92%
    04:00 +7°C° 0.3 mm 3 mps 750 mmHg 93%
    05:00 +7°C° 0.3 mm 3 mps 750 mmHg 93%
    06:00 +7°C° 0.4 mm 3 mps 751 mmHg 92%
    07:00 +7°C° 0.4 mm 3 mps 751 mmHg 91%
    08:00 +7°C° 0.4 mm 3 mps 751 mmHg 90%
    09:00 +7°C° 0.2 mm 3 mps 751 mmHg 89%
    10:00 +7°C° 0.2 mm 3 mps 752 mmHg 88%
    11:00 +7°C° 0.2 mm 3 mps 752 mmHg 87%
    12:00 +7°C° 0 mm 3 mps 752 mmHg 87%
    13:00 +8°C° 0 mm 3 mps 752 mmHg 86%
    14:00 +8°C° 0 mm 3 mps 752 mmHg 86%
    15:00 +8°C° 0 mm 3 mps 752 mmHg 85%
    16:00 +8°C° 0 mm 3 mps 752 mmHg 84%
    17:00 +8°C° 0 mm 3 mps 752 mmHg 84%
    18:00 +7°C° 0 mm 3 mps 752 mmHg 85%
    19:00 +7°C° 0 mm 3 mps 752 mmHg 87%
    20:00 +5°C° 0 mm 3 mps 752 mmHg 89%
    21:00 +5°C° 0 mm 3 mps 752 mmHg 90%
    22:00 +4°C° 0 mm 3 mps 752 mmHg 92%
    23:00 +4°C° 0 mm 3 mps 752 mmHg 93%

    29 August, Thursday

    Time Temperature Precipitation Wind Pressure Humidity
    00:00 +4°C° 0 mm 3 mps 752 mmHg 93%
    01:00 +4°C° 0 mm 3 mps 752 mmHg 93%
    02:00 +4°C° 0 mm 3 mps 752 mmHg 93%
    03:00 +4°C° 0 mm 3 mps 752 mmHg 93%
    04:00 +5°C° 0 mm 3 mps 752 mmHg 92%
    05:00 +5°C° 0 mm 3 mps 752 mmHg 92%
    06:00 +5°C° 0 mm 4 mps 752 mmHg 90%
    07:00 +6°C° 0 mm 4 mps 752 mmHg 88%
    08:00 +6°C° 0 mm 5 mps 752 mmHg 87%
    09:00 +7°C° 0 mm 5 mps 753 mmHg 85%
    10:00 +7°C° 0 mm 5 mps 753 mmHg 83%
    11:00 +8°C° 0 mm 5 mps 753 mmHg 81%
    12:00 +8°C° 0 mm 5 mps 753 mmHg 81%
    13:00 +8°C° 0 mm 5 mps 753 mmHg 80%
    14:00 +8°C° 0 mm 5 mps 753 mmHg 79%
    15:00 +8°C° 0 mm 5 mps 753 mmHg 80%
    16:00 +8°C° 0 mm 5 mps 753 mmHg 81%
    17:00 +8°C° 0 mm 5 mps 753 mmHg 82%
    18:00 +7°C° 0 mm 5 mps 753 mmHg 84%
    19:00 +7°C° 0 mm 5 mps 754 mmHg 87%
    20:00 +6°C° 0 mm 5 mps 754 mmHg 89%
    21:00 +6°C° 0 mm 4 mps 754 mmHg 90%
    22:00 +6°C° 0 mm 4 mps 755 mmHg 90%
    23:00 +6°C° 0 mm 4 mps 755 mmHg 90%

    30 August, Friday

    Time Temperature Precipitation Wind Pressure Humidity
    00:00 +6°C° 0 mm 4 mps 755 mmHg 90%
    01:00 +6°C° 0 mm 4 mps 755 mmHg 90%
    02:00 +6°C° 0 mm 4 mps 755 mmHg 90%
    03:00 +5°C° 0 mm 5 mps 756 mmHg 90%
    04:00 +5°C° 0 mm 5 mps 756 mmHg 90%
    05:00 +5°C° 0 mm 5 mps 756 mmHg 89%
    06:00 +4°C° 0 mm 6 mps 757 mmHg 89%
    07:00 +4°C° 0 mm 6 mps 757 mmHg 88%
    08:00 +3°C° 0 mm 6 mps 757 mmHg 88%
    09:00 +4°C° 0 mm 6 mps 758 mmHg 85%
    10:00 +4°C° 0 mm 7 mps 758 mmHg 83%
    11:00 +4°C° 0 mm 7 mps 758 mmHg 80%
    12:00 +4°C° 0 mm 7 mps 758 mmHg 78%
    13:00 +5°C° 0 mm 7 mps 758 mmHg 75%
    14:00 +5°C° 0 mm 8 mps 758 mmHg 72%
    15:00 +5°C° 0 mm 8 mps 759 mmHg 71%
    16:00 +5°C° 0 mm 8 mps 759 mmHg 69%
    17:00 +5°C° 0 mm 8 mps 759 mmHg 67%
    18:00 +4°C° 0 mm 7 mps 759 mmHg 71%
    19:00 +3°C° 0 mm 5 mps 760 mmHg 75%
    20:00 +3°C° 0 mm 4 mps 760 mmHg 79%
    21:00 +1°C° 0 mm 4 mps 760 mmHg 81%
    22:00 +1°C° 0 mm 4 mps 761 mmHg 82%
    23:00 +2°C° 0 mm 3 mps 761 mmHg 83%
    Show more